This demonstration page uses our WeatherBlox Daily Observations layout. Learn more.

Left ArrowRight Arrow

40.92945, -100.16068

Hourly Observations for November 25, 2020

Temp ( °F °C ) Dew Point ( °F °C ) Humidity (%) Winds ( mph kmh ) Pressure ( in mb ) Visibility ( mi km ) Precip ( " mm )
12:15 am 00:15 Clear 29 -1.5 23 -5 77 77 NW 8 13 30.02 1017 10 16.0934 0 0
12:35 am 00:35 Clear 29 -1.9 22 -5.3 78 78 WNW 8 13 30.04 1017 10 16.0934 0 0
12:55 am 00:55 Clear 28 -2.1 23 -5.2 80 80 WNW 7 11 30.04 1017 10 16.0934 0 0
1:15 am 01:15 Clear 28 -2.4 22 -5.4 80 80 WNW 6 9 30.04 1017 10 16.0934 0 0
1:35 am 01:35 Clear 26 -3.1 22 -5.5 84 84 WNW 8 13 30.05 1018 10 16.0934 0 0
1:55 am 01:55 Clear 27 -3 22 -5.6 82 82 WNW 8 13 30.05 1017 10 16.0934 0 0
2:15 am 02:15 Clear 26 -3.3 22 -5.8 83 83 WNW 7 11 30.05 1018 10 16.0934 0 0
2:35 am 02:35 Clear 26 -3.3 21 -6 82 82 WNW 6 9 30.06 1018 10 16.0934 0 0
2:55 am 02:55 Clear 26 -3.5 21 -6.1 82 82 WNW 6 9 30.07 1018 10 16.0934 0 0
3:15 am 03:15 Clear 25 -4.1 20 -6.4 84 84 NW 6 9 30.08 1019 10 16.0934 0 0
3:35 am 03:35 Clear 25 -4.1 20 -6.5 84 84 NW 5 7 30.07 1018 10 16.0934 0 0
3:55 am 03:55 Clear 24 -4.2 20 -6.7 83 83 WNW 9 15 30.08 1019 10 16.0934 0 0
4:15 am 04:15 Clear 24 -4.5 19 -7 83 83 WNW 10 17 30.08 1019 10 16.0934 0 0
4:35 am 04:35 Clear 25 -4.1 19 -7 80 80 WNW 12 19 30.08 1019 10 16.0934 0 0
4:55 am 04:55 Clear 25 -4.1 19 -7 80 80 WNW 10 17 30.09 1019 10 16.0934 0 0
5:15 am 05:15 Clear 24 -4.6 19 -7.3 82 82 WNW 9 15 30.09 1019 10 16.0934 0 0
5:35 am 05:35 Clear 24 -4.7 19 -7.5 81 81 WNW 10 17 30.09 1019 10 16.0934 0 0
5:55 am 05:55 Clear 23 -5 19 -7.5 83 83 WNW 10 17 30.1 1019 10 16.0934 0 0
6:15 am 06:15 Clear 23 -4.8 18 -7.6 81 81 WNW 10 17 30.1 1019 10 16.0934 0 0
6:35 am 06:35 Clear 23 -5 18 -7.7 82 82 WNW 7 11 30.09 1019 10 16.0934 0 0
6:55 am 06:55 Clear 23 -5 18 -7.7 82 82 WNW 9 15 30.09 1019 10 16.0934 0 0
7:15 am 07:15 Clear 24 -4.6 18 -7.7 79 79 WNW 12 19 30.1 1019 10 16.0934 0 0
7:35 am 07:35 Clear 23 -4.9 18 -7.8 80 80 WNW 10 17 30.1 1019 10 16.0934 0 0
7:55 am 07:55 Sunny 23 -5 18 -7.7 82 82 WNW 8 13 30.1 1019 10 16.0934 0 0
8:15 am 08:15 Sunny 23 -5 18 -7.6 82 82 NW 8 13 30.11 1020 10 16.0934 0 0
8:35 am 08:35 Sunny 24 -4.2 19 -7.1 80 80 WNW 7 11 30.1 1019 10 16.0934 0 0
8:55 am 08:55 Sunny 26 -3.2 20 -6.6 78 78 WNW 10 17 30.1 1019 10 16.0934 0 0
9:15 am 09:15 Sunny 28 -2 21 -6.2 73 73 NW 8 13 30.08 1019 10 16.0934 0 0
9:35 am 09:35 Sunny 30 -1.2 22 -5.6 72 72 NW 8 13 30.07 1018 10 16.0934 0 0
9:55 am 09:55 Sunny 31 -0.5 23 -5 72 72 WNW 7 11 30.06 1018 10 16.0934 0 0
10:10 am 10:10 Sunny 32 0 23 -4.8 70 70 WNW 6 9 30.06 1018 10 16.0934 0 0
10:35 am 10:35 Sunny 34 1.1 25 -4.1 69 69 W 5 7 30.05 1017 10 16.0934 0 0
10:55 am 10:55 Sunny 36 2 25 -3.9 65 65 NW 5 7 30.03 1017 10 16.0934 0 0
11:15 am 11:15 Sunny 38 3.2 26 -3.5 62 62 W 3 6 30.01 1016 10 16.0934 0 0
11:35 am 11:35 Sunny 41 5.2 26 -3.3 55 55 WSW 5 7 29.97 1015 10 16.0934 0 0
11:55 am 11:55 Sunny 45 7 27 -2.9 50 50 SSW 6 9 29.95 1014 10 16.0934 0 0
12:15 pm 12:15 Sunny 47 8.6 24 -4.7 39 39 W 5 7 29.91 1013 10 16.0934 0 0
12:35 pm 12:35 Sunny 49 9.2 23 -4.9 37 37 NW 3 6 29.91 1013 10 16.0934 0 0
12:55 pm 12:55 Sunny 49 9.6 24 -4.6 37 37 WSW 5 7 29.88 1012 10 16.0934 0 0
1:15 pm 13:15 Sunny 50 10.2 24 -4.3 36 36 S 5 7 29.87 1011 10 16.0934 0 0
1:35 pm 13:35 Sunny 52 11 24 -4.5 34 34 SSW 5 7 29.86 1011 10 16.0934 0 0
1:55 pm 13:55 Sunny 53 11.6 24 -4.3 33 33 S 10 17 29.85 1011 10 16.0934 0 0
2:15 pm 14:15 Sunny 52 11.2 26 -3.5 36 36 SSW 12 19 29.84 1011 10 16.0934 0 0
2:35 pm 14:35 Sunny 52 11.1 25 -4.1 34 34 SSW 12 19 29.84 1011 10 16.0934 0 0
2:55 pm 14:55 Sunny 52 11.2 24 -4.6 33 33 SSW 12 19 29.84 1011 10 16.0934 0 0
3:15 pm 15:15 Sunny 52 11.2 24 -4.4 33 33 SSW 10 17 29.83 1010 10 16.0934 0 0
3:35 pm 15:35 Sunny 53 11.5 24 -4.2 33 33 SSW 10 17 29.83 1010 10 16.0934 0 0
3:55 pm 15:55 Sunny 53 11.5 25 -4.1 34 34 S 10 17 29.82 1010 10 16.0934 0 0
4:15 pm 16:15 Sunny 52 11.1 24 -4.5 33 33 S 10 17 29.82 1010 10 16.0934 0 0
5:15 pm 17:15 Clear 43 6.2 25 -3.7 49 49 S 8 13 29.87 1011 10 16.0934 0 0
5:35 pm 17:35 Clear 41 4.8 25 -3.8 54 54 S 9 15 29.87 1012 10 16.0934 0 0
6:15 pm 18:15 Clear 39 4 25 -3.7 58 58 SSE 9 15 29.88 1012 10 16.0934 0 0
6:35 pm 18:35 Clear 37 2.9 25 -3.8 62 62 SSE 9 15 29.89 1012 10 16.0934 0 0
6:55 pm 18:55 Clear 37 2.9 25 -4 61 61 SSE 9 15 29.89 1012 10 16.0934 0 0
7:15 pm 19:15 Clear 36 2.3 24 -4.3 62 62 SSE 8 13 29.89 1012 10 16.0934 0 0
7:35 pm 19:35 Clear 35 1.8 24 -4.3 64 64 SSE 9 15 29.9 1012 10 16.0934 0 0
7:55 pm 19:55 Clear 39 3.8 24 -4.2 56 56 S 13 20 29.88 1012 10 16.0934 0 0
8:15 pm 20:15 Clear 41 5 25 -4.1 52 52 S 10 17 29.88 1012 10 16.0934 0 0
8:35 pm 20:35 Clear 41 5.1 24 -4.5 50 50 S 13 20 29.88 1012 10 16.0934 0 0
8:55 pm 20:55 Clear 41 4.8 24 -4.5 51 51 S 12 19 29.88 1012 10 16.0934 0 0
9:15 pm 21:15 Clear 39 4.1 24 -4.5 54 54 S 13 20 29.9 1012 10 16.0934 0 0
9:35 pm 21:35 Clear 40 4.2 24 -4.3 54 54 S 13 20 29.9 1012 10 16.0934 0 0
9:55 pm 21:55 Clear 39 3.7 24 -4.2 57 57 SSW 8 13 29.91 1013 10 16.0934 0 0
10:15 pm 22:15 Clear 38 3.6 25 -4.1 58 58 SW 9 15 29.91 1013 10 16.0934 0 0
10:35 pm 22:35 Clear 40 4.4 24 -4.2 54 54 SSW 10 17 29.9 1013 10 16.0934 0 0
10:55 pm 22:55 Clear 40 4.4 25 -3.9 55 55 SSW 12 19 29.91 1013 10 16.0934 0 0
11:15 pm 23:15 Clear 40 4.6 25 -3.7 55 55 SSW 13 20 29.91 1013 10 16.0934 0 0
11:35 pm 23:35 Clear 41 4.9 26 -3.6 55 55 SSW 15 24 29.91 1013 10 16.0934 0 0
11:55 pm 23:55 Clear 40 4.5 26 -3.5 56 56 SW 10 17 29.91 1013 10 16.0934 0 0

Powered by AerisWeather